Regional Weather Roundup
Issued by NWS

Home | Current Version | Previous Version | Text Only | Print | Product List | Glossary On
Versions: 1 2 3 4 5 6 7 8 9 10 11 12 13 14 15 16 17 18 19 20 21 22 23 24 25 26 27 28 29 30 31 32 33 34 35 36 37 38 39 40 41 42 43 44 45 46 47 48 49 50
000
ASUS46 KLOX 060312
RWRCA

SOUTHERN CALIFORNIA WEATHER ROUNDUP
NATIONAL WEATHER SERVICE OXNARD CALIFORNIA
800 PM PDT TUE MAY 05 2015

NOTE: "FAIR" INDICATES FEW OR NO CLOUDS BELOW 12,000 FEET WITH NO
SIGNIFICANT WEATHER AND/OR OBSTRUCTIONS TO VISIBILITY.

  -  STATIONS PRECEEDED BY AN ASTERISK (*) ARE NOT NWS OR FAA
     STATIONS AND ARE NOT SUBJECT TO NWS AND FAA QUALITY CONTROL.

CAZ041-042-087-060400-
LA AND ORANGE COUNTY COASTAL AREAS


CITY           SKY/WX    TMP DP  RH WIND       PRES   REMARKS
L.A. DOWNTOWN  PTCLDY    60  49  66 VRB3      29.93R
L.A. AIRPORT   PTCLDY    59  51  75 W9        29.94S
LONG BEACH     PTCLDY    62  48  60 NW7       29.93R

CITY           SKY/WX    TMP DP  RH WIND       PRES   REMARKS
AVALON           N/A     59 N/A N/A MISG        N/A
FULLERTON      PTCLDY    62  46  55 SW6       29.92S
*GETTY CENTER    N/A    N/A N/A N/A SW3         N/A
HAWTHORNE      PTCLDY    61  50  67 W5        29.94R
*REDONDO BEACH   N/A     60  50  71 CALM      29.94R
SANTA ANA      MOCLDY    60  49  66 SW5       29.93S
STA MONICA APT PTCLDY    61  49  64 W5        29.94R
*STA MON PIER    N/A     59  53  79 SW8       29.93S
TORRANCE       PTCLDY    61  52  72 W9        29.94S
*UCLA            N/A     57  48  72 SW7       29.91S

$$

CAZ547-548-048-060400-
LA COUNTY VALLEYS AND INLAND EMPIRE


CITY           SKY/WX    TMP DP  RH WIND       PRES   REMARKS
BURBANK        PTCLDY    61  46  57 S6        29.92R
VAN NUYS       PTCLDY    61  47  59 VRB3      29.92R

CITY           SKY/WX    TMP DP  RH WIND       PRES   REMARKS
CORONA AIRPORT MOCLDY    60  48  64 W5        29.92R
*CHATSWORTH      N/A     59  48  67 W5        29.93R
CHINO          MOCLDY    61  47  59 SW10      29.93R
*CLAREMONT       N/A     56  46  68 SW7         N/A
MARCH AFB      MOCLDY    59  47  65 NW8       29.92R
*NORTHRIDGE      N/A     59  45  58 W3          N/A
ONTARIO        MOCLDY    60  47  61 SW9       29.92R
*PASADENA        N/A     59  50  72 E1          N/A
POMONA         CLEAR     59  46  63 SW8       29.95R
RIVERSIDE      MOCLDY    61  47  59 W6        29.92R
SAN BERNARDINO MOCLDY    59  45  58 SW8       29.93R
*WHITEMAN AP   CLEAR     61  46  59 SE3       29.95S
*WOODLAND HILL   N/A     59  46  63 W5          N/A

$$

CAZ054-055-060400-
LA AND SAN BERNARDINO COUNTY MOUNTAINS


CITY           SKY/WX    TMP DP  RH WIND       PRES   REMARKS
*ACTON           N/A     58  47  67 SW8G21      N/A
*BIG BEAR AIRP MOCLDY    46  14  27 W9        30.00S
*BIG PINES       N/A     44  32  63 S2          N/A
MT WILSON NWS    N/A     45  39  81 E8          N/A
SANDBERG       CLEAR     47  43  86 SW14      29.95R

$$

CAZ028-029-059-060-099-060400-
ANTELOPE VALLEY AND SURROUNDING AREAS


CITY           SKY/WX    TMP DP  RH WIND       PRES   REMARKS
LANCASTER      PTCLDY    56  44  64 SW23G31   29.85R
PALMDALE       PTCLDY    59  43  55 SW23      29.87R

CITY           SKY/WX    TMP DP  RH WIND       PRES   REMARKS
29 PALMS       MOCLDY    72  35  25 SW20      29.83R
BARSTOW/DAGGET PTCLDY    74  35  24 W18G25    29.78R
BISHOP         CLOUDY    72  25  17 SE7       29.79R
CHINA LAKE     PTCLDY    75  33  21 W8        29.73R
EDWARDS AFB    MOCLDY    62  42  49 SW18G24   29.82R
MOJAVE         FAIR      66  37  34 W32G39    29.80R
NEEDLES        MOCLDY    83  31  15 S10       29.73R
VICTORVILLE    MOCLDY    61  43  51 S18       29.86R

$$

CAZ039-040-060400-
VENTURA AND SANTA BARBARA COUNTY COAST


CITY           SKY/WX    TMP DP  RH WIND       PRES   REMARKS
CAMARILLO      CLOUDY    61  47  59 W10       29.94R
NWS OXNARD       N/A     59  48  67 CALM      29.93S
OXNARD AIRPORT PTCLDY    58  51  78 W9        29.94S
*POINT MUGU    CLOUDY    62  50  64 W6        29.95S
SBA APT/GOLETA PTCLDY    58  49  72 W6        29.93S
*SANTA BARBARA   N/A     61  47  59 E2        30.01S
*VENTURA         N/A     59  46  61 W3        29.53S

$$

CAZ044-045-060400-
VENTURA COUNTY VALLEYS


CITY           SKY/WX    TMP DP  RH WIND       PRES   REMARKS
*SIMI VALLEY     N/A     57  49  77 CALM      29.91R
*OJAI            N/A     59  47  64 CALM      29.89S
*FILLMORE        N/A     60  49  68 CALM      29.84R

$$

CAZ053-060400-
VENTURA COUNTY MOUNTAINS


CITY           SKY/WX    TMP DP  RH WIND       PRES   REMARKS
*LOCKWOOD VLY    N/A     54  37  54 MISG        N/A
*ROSE VALLEY     N/A     48  48 100 MISG        N/A

$$

CAZ034-035-036-060400-
CENTRAL COAST AND SANTA YNEZ VALLEY


CITY           SKY/WX    TMP DP  RH WIND       PRES   REMARKS
SAN LUIS OBISP CLOUDY    54  46  74 NW13      29.98R
SANTA MARIA    CLOUDY    55  46  71 NW13      29.98S

CITY           SKY/WX    TMP DP  RH WIND       PRES   REMARKS
*CAL POLY SLO    N/A     55  48  76 W5          N/A
*LOMPOC        CLOUDY    55  45  67 NW8       30.00R
*SANTA YNEZ    FAIR      52  43  71 W9        29.97R

$$

CAZ037-038-051-060400-
SAN LUIS OBISPO COUNTY INTERIOR AND CUYAMA VALLEY


CITY           SKY/WX    TMP DP  RH WIND       PRES   REMARKS
*CUYAMA          N/A     55  42  61 W14       29.86R
PASO ROBLES    CLEAR     55  44  66 S20       29.91R

$$

CAZ032-033-061-060400-
SOUTHERN DESERTS


CITY           SKY/WX    TMP DP  RH WIND       PRES   REMARKS
BLYTHE         MOCLDY    84  32  15 SW13      29.73R
IMPERIAL       MOCLDY    76  44  32 SW6       29.74R
PALM SPRINGS   CLOUDY    76  43  30 NW20G25   29.76R
THERMAL        CLOUDY    78  44  29 NW21G26   29.71R

$$

ELSEWHERE ACROSS THE WESTERN UNITED STATES AND MEXICO


CITY           SKY/WX    TMP DP  RH WIND       PRES   REMARKS
DENVER, CO     LGT RAIN  50  48  93 N10       29.79S
GRAND CANYON,  PTCLDY    53  42  66 SW10      29.98R
HONOLULU, HI   MOSUNNY   79  61  53 E20G26    30.02F
KAHULUI, MAUI  SUNNY     79  63  57 NE21G31   30.01F
LAKE TAHOE, CA PTCLDY    52  27  38 VRB5      29.97R
LAS VEGAS, NV  PTCLDY    82  34  17 SW16G25   29.67R
MAMMOTH LAKES, FAIR      52  30  43 NW12G22   29.97R
MEXICO CITY, M CLOUDY    63  54  72 S6        30.32R
PHOENIX, AZ    PTCLDY    82  47  29 N8        29.78R
PORTLAND, OR   MOCLDY    57  41  55 N8        30.08R
RENO, NV       MOCLDY    64  30  27 W15       29.88R
SALT LAKE CITY TSTM      59  50  72 NW20      29.79R
SAN DIEGO, CA  PTCLDY    62  48  60 NW6       29.96S
SAN FRANCISCO, MOCLDY    55  44  66 W15       29.92R
SAN JOSE, CA   MOCLDY    57  42  57 W8        29.93R
SEATTLE, WA    LGT RAIN  48  45  89 NE10      30.10R FOG
TIJUANA, MEX   PTCLDY    59  46  63 W8        29.98R

$$

STATION/POSITION TIME  TEMP    WIND        PRES    VSBY  WAVE
                       AIR SEA DIR/SP/G                  HT/PER
                 (UTC) (F)     (DEG/KT/KT) (MB)    (MI)  (FT/S)
POINT ARGUELLO B NOT AVBL
WEST SANTA BARBA 0300   55 55  340/ 16/ 19 1014.4F         7/14
POINT CONCEPTION NOT AVBL
EAST SANTA BARBA NOT AVBL
SANTA MONICA BAY 0300   58 59  330/ 14/ 14 1013.7S         4/16



USA.gov is the U.S. government's official web portal to all federal, state and local government web resources and services.